Back to catalog

ARCTIC WEATHER SATELLITE

AliveWeatherSSO
NORAD 60543·PAYLOAD·🇳🇴 Norway

Launched Aug 16, 2024 from Vandenberg Space Force Base

Loading…

Next Passes (next 24 hours)

TLE

FreshSource: Space-Track

Epoch: Sep 14, 2026, 03:31 UTC

1 60543U 24149CD  26257.14673747  .00000626  00000-0  70782-4 0  9991
2 60543  97.6723 325.0318 0002762 143.5760 216.5646 14.89808947112540

Track ARCTIC WEATHER SATELLITE in real time with AllMySat

Download on the App Store